This demonstration page uses our WeatherBlox Daily Observations layout. Learn more.

Left ArrowRight Arrow

38.83388, -104.82136

Hourly Observations for October 2, 2022

Temp ( °F °C ) Dew Point ( °F °C ) Humidity (%) Winds ( mph kmh ) Pressure ( in mb ) Visibility ( mi km ) Precip ( " mm )
12:56 am 00:56 Clear 58 14.6 41 4.9 52 52 S 6 9 29.05 984 10 16 0.00 0.00
1:56 am 01:56 Clear 54 12 42 5.8 66 66 Calm 29.05 984 10 16 0.00 0.00
2:56 am 02:56 Clear 54 12.2 43 6.3 67 67 Calm 29.05 984 10 16 0.00 0.00
3:56 am 03:56 Cloudy 54 12.4 42 5.6 63 63 SSW 6 9 29.06 984 10 16 0.00 0.00
4:56 am 04:56 Mostly Cloudy 52 11.1 44 6.4 73 73 NW 7 11 29.05 984 10 16 0.00 0.00
5:56 am 05:56 Cloudy 54 12 41 5.2 63 63 Calm 29.08 985 10 16 0.00 0.00
6:56 am 06:56 Mostly Cloudy 53 11.6 43 6.1 69 69 NW 3 6 29.11 986 10 16 0.00 0.00
7:56 am 07:56 Mostly Cloudy 53 11.6 43 6.3 70 70 Calm 29.15 987 10 16 0.00 0.00
8:56 am 08:56 Mostly Cloudy 52 11.3 44 6.8 74 74 NNW 3 6 29.17 988 10 16 0.00 0.00
9:56 am 09:56 Partly Cloudy 57 13.7 47 8.3 70 70 Calm 29.23 990 10 16 0.00 0.00
10:56 am 10:56 Cloudy 58 14.3 46 8 66 66 Calm 29.27 991 10 16 0.00 0.00
11:50 am 11:50 Cloudy with Light Rain 59 15 46 8 63 63 Calm 29.27 991 10 16 0.00 0.00
11:56 am 11:56 Cloudy with Light Rain 58 14.5 48 8.9 69 69 Calm 29.27 991 10 16 0.01 0.13
12:09 pm 12:09 Mostly Cloudy 59 15 48 9 67 67 Calm 29.27 991 10 16 0.00 0.00
12:56 pm 12:56 Mostly Cloudy 59 14.8 47 8.5 66 66 S 3 6 29.25 991 10 16 0.01 0.13
1:56 pm 13:56 Mostly Cloudy 62 16.7 40 4.7 45 45 S 10 17 29.25 991 10 16 0.00 0.00
2:56 pm 14:56 Mostly Cloudy 64 17.5 39 4.1 41 41 SSE 15 24 29.31 992 10 16 0.00 0.00
3:56 pm 15:56 Cloudy 62 16.9 39 3.9 42 42 SSE 15 24 29.23 990 10 16 0.00 0.00
4:56 pm 16:56 Partly Cloudy 62 16.4 40 4.4 45 45 SSE 17 28 29.19 988 10 16 0.00 0.00
5:56 pm 17:56 Mostly Sunny 57 14.1 43 6.2 59 59 S 15 24 29.11 986 10 16 0.00 0.00
6:56 pm 18:56 Clear 59 15.1 43 6.1 55 55 SSW 14 22 29.14 987 10 16 0.00 0.00
7:56 pm 19:56 Partly Cloudy 56 13.5 43 6.1 61 61 S 5 7 29.10 986 10 16 0.00 0.00
8:56 pm 20:56 Clear 55 12.7 43 6.1 64 64 NW 5 7 29.12 986 10 16 0.00 0.00
9:56 pm 21:56 Mostly Cloudy 55 12.8 41 5.2 60 60 NW 6 9 29.13 987 10 16 0.00 0.00
10:56 pm 22:56 Mostly Cloudy 55 12.8 40 4.2 56 56 Calm 29.10 986 10 16 0.00 0.00
11:56 pm 23:56 Cloudy 57 13.7 37 2.9 48 48 Calm 29.13 986 10 16 0.00 0.00

Powered by AerisWeather